Location: Lombard
(41.8800°N, 88.0080°W)
Time: 12:05:29
(UTC-05:00)

Tiros 1 - Pass Details

Date: 08 February 2023
Orbit: 628 x 662 km, 48.4° (Epoch: 20 March)

Event Time Altitude Azimuth Distance (km) Brightness Sun altitude
Exits shadow 05:02:13 29° 203° (SSW) 1,176 8.3 -21.8°
Drops below altitude 10° 05:05:34 10° 160° (SSE) 2,035 10.0 -21.1°
Sets 05:08:06 0° 150° (SSE) 2,948 11.0 -20.7°
